TimeAKDT,TemperatureF,Dew PointF,Humidity,Sea Level PressureIn,VisibilityMPH,Wind Direction,Wind SpeedMPH,Gust SpeedMPH,PrecipitationIn,Events,Conditions,WindDirDegrees,DateUTC
12:53 AM,27.0,25.0,92,29.69,9.0,Calm,Calm,-,N/A,,Mostly Cloudy,0,2011-10-20 08:53:00
1:53 AM,27.0,23.0,85,29.68,10.0,NNE,3.5,-,N/A,,Scattered Clouds,30,2011-10-20 09:53:00
2:53 AM,28.0,24.1,85,29.66,10.0,NE,5.8,-,N/A,,Clear,50,2011-10-20 10:53:00
3:53 AM,33.1,24.1,70,29.65,10.0,NE,5.8,-,N/A,,Scattered Clouds,50,2011-10-20 11:53:00
4:53 AM,30.9,21.9,69,29.63,10.0,ENE,6.9,-,N/A,,Clear,60,2011-10-20 12:53:00
5:53 AM,30.0,23.0,75,29.62,10.0,NE,6.9,-,N/A,,Clear,50,2011-10-20 13:53:00
6:53 AM,32.0,24.1,73,29.60,10.0,NE,10.4,-,N/A,,Clear,50,2011-10-20 14:53:00
7:53 AM,36.0,25.0,64,29.57,10.0,NE,9.2,-,N/A,,Clear,50,2011-10-20 15:53:00
8:53 AM,36.0,26.1,67,29.56,10.0,NE,8.1,-,N/A,,Partly Cloudy,50,2011-10-20 16:53:00
9:53 AM,39.0,28.0,65,29.54,10.0,NE,9.2,-,N/A,,Overcast,50,2011-10-20 17:53:00
10:53 AM,39.9,30.0,68,29.52,10.0,ENE,12.7,-,N/A,,Overcast,60,2011-10-20 18:53:00
11:53 AM,43.0,30.0,60,29.51,10.0,NE,12.7,-,N/A,,Overcast,50,2011-10-20 19:53:00
12:53 PM,43.0,32.0,65,29.48,10.0,NE,15.0,25.3,N/A,,Overcast,50,2011-10-20 20:53:00
1:53 PM,45.0,33.1,63,29.46,10.0,ENE,19.6,-,N/A,,Mostly Cloudy,70,2011-10-20 21:53:00
2:53 PM,45.0,34.0,65,29.45,10.0,ENE,21.9,29.9,N/A,,Overcast,70,2011-10-20 22:53:00
3:53 PM,45.0,34.0,65,29.42,10.0,ENE,17.3,25.3,N/A,,Overcast,70,2011-10-20 23:53:00
4:53 PM,46.0,36.0,68,29.39,10.0,ENE,11.5,-,N/A,,Overcast,60,2011-10-21 00:53:00
5:53 PM,45.0,35.1,68,29.38,10.0,ENE,18.4,28.8,N/A,,Overcast,70,2011-10-21 01:53:00
6:53 PM,44.1,37.0,76,29.38,10.0,NE,11.5,-,N/A,,Overcast,50,2011-10-21 02:53:00
7:53 PM,43.0,37.9,82,29.37,8.0,ENE,13.8,20.7,0.01,Rain,Light Rain,60,2011-10-21 03:53:00
8:53 PM,42.1,37.9,85,29.36,9.0,NE,16.1,24.2,0.02,Rain,Light Rain,50,2011-10-21 04:53:00
9:53 PM,42.1,37.9,85,29.35,10.0,NE,16.1,-,0.02,Rain,Light Rain,50,2011-10-21 05:53:00
10:53 PM,42.1,37.9,85,29.33,10.0,NE,15.0,-,0.02,Rain,Light Rain,50,2011-10-21 06:53:00
11:53 PM,42.1,37.9,85,29.33,10.0,NE,16.1,24.2,0.03,Rain,Light Rain,50,2011-10-21 07:53:00